Bluefield, WV

10:55 AM EDT on May 28, 2017 (GMT -0400)
Mercer County

Weather History for KBLF - April, 2013

Change the Weather History Date:

Monday, April 29, 2013

  Actual Average Record
Temperature  
Mean Temperature 58 °F 59 °F  
Max Temperature 63 °F 69 °F 86 °F (2017)
Min Temperature 52 °F 49 °F 32 °F (1979)
Degree Days  
Heating Degree Days 7 7  
Month to date heating degree days 273 314  
Since 1 July heating degree days 4528 4423  
Cooling Degree Days 0 1  
Month to date cooling degree days 26 27  
Year to date cooling degree days 27 31  
Growing Degree Days 8 (Base 50)    
Moisture  
Dew Point 49 °F    
Average Humidity 74    
Maximum Humidity 83    
Minimum Humidity 64    
Precipitation  
Precipitation 0.02 in 0.12 in 1.36 in (1968)
Month to date precipitation 4.21 3.22  
Year to date precipitation 15.30 12.39  
Snow  
Snow 0.00 in - - ()
Month to date snowfall 0.9  
Since 1 July snowfall 56.0  
Snow Depth 0.00 in    
Sea Level Pressure  
Sea Level Pressure 30.01 in    
Wind  
Wind Speed 4 mph (SSW)    
Max Wind Speed 15 mph    
Max Gust Speed 20 mph    
Visibility 10 miles    
Events Rain    
T = Trace of Precipitation, MM = Missing Value Source: NWS Daily Summary

Daily Weather History Graph

Daily Weather History Graph

Search for Another Location

Airport or City:

Trip Planner

Search our weather history database for the weather conditions in past years. The results will help you decide how hot, cold, wet, or windy it might be!

Date:

Astronomy

Apr. 29, 2013 Rise Set
Actual Time 6:32 AM EDT 8:12 PM EDT
Civil Twilight 6:04 AM EDT 8:40 PM EDT
Nautical Twilight 5:30 AM EDT 9:14 PM EDT
Astronomical Twilight 4:54 AM EDT 9:50 PM EDT
Moon No Moon Rise 9:53 AM EDT (4/29)
Length of Visible Light 14h 36m
Length of Day
13h 40m
Waning Gibbous, 80% of the Moon is Illuminated
Apr 29
Waning Gibbous
May 2
Last Quarter
May 9
New
May 18
First Quarter
May 25
Full

Hourly Weather History & Observations

Time (EDT) Temp. Dew Point Humidity Pressure Visibility Wind Dir Wind Speed Gust Speed Precip Events Conditions
12:48 AM 53.6 °F 46.4 °F 77% 30.04 in 10.0 mi SSE 11.5 mph 17.3 mph N/A   Overcast
12:52 AM 54.0 °F 46.9 °F 77% 30.00 in 10.0 mi SSE 10.4 mph 18.4 mph N/A   Overcast
1:52 AM 54.0 °F 48.0 °F 80% 30.00 in 10.0 mi SSE 10.4 mph - N/A   Overcast
2:25 AM 53.6 °F 48.2 °F 82% 30.03 in 10.0 mi SSE 12.7 mph 19.6 mph N/A   Overcast
2:49 AM 53.6 °F 48.2 °F 82% 30.02 in 10.0 mi SSE 6.9 mph - N/A   Overcast
2:52 AM 53.1 °F 48.0 °F 83% 29.99 in 10.0 mi South 6.9 mph - N/A   Mostly Cloudy
3:17 AM 53.6 °F 48.2 °F 82% 30.02 in 10.0 mi SE 8.1 mph - N/A   Overcast
3:38 AM 53.6 °F 48.2 °F 82% 30.01 in 10.0 mi SSE 10.4 mph 17.3 mph N/A   Mostly Cloudy
3:52 AM 53.1 °F 48.0 °F 83% 29.96 in 10.0 mi SSE 8.1 mph - N/A   Mostly Cloudy
4:52 AM 53.1 °F 46.9 °F 80% 29.96 in 10.0 mi Variable 4.6 mph - N/A   Scattered Clouds
5:52 AM 53.1 °F 46.9 °F 80% 29.97 in 10.0 mi Calm Calm - N/A   Overcast
6:52 AM 54.0 °F 46.9 °F 77% 29.99 in 10.0 mi South 3.5 mph - N/A   Overcast
7:52 AM 55.0 °F 48.0 °F 77% 30.00 in 10.0 mi Calm Calm - N/A   Overcast
8:52 AM 57.9 °F 48.0 °F 70% 30.01 in 10.0 mi West 4.6 mph - N/A   Overcast
9:34 AM 57.2 °F 48.2 °F 72% 30.05 in 10.0 mi Calm Calm - N/A   Overcast
9:52 AM 57.0 °F 48.0 °F 72% 30.01 in 10.0 mi Variable 3.5 mph - N/A   Overcast
10:52 AM 57.9 °F 50.0 °F 75% 30.01 in 10.0 mi Calm Calm - 0.00 in   Overcast
11:52 AM 59.0 °F 50.0 °F 72% 30.01 in 10.0 mi WSW 4.6 mph - 0.00 in   Overcast
12:28 PM 57.2 °F 51.8 °F 82% 30.06 in 10.0 mi West 5.8 mph - 0.01 in   Overcast
12:48 PM 59.0 °F 51.8 °F 77% 30.06 in 10.0 mi Calm Calm - 0.01 in   Overcast
12:52 PM 60.1 °F 51.1 °F 72% 30.01 in 10.0 mi Variable 3.5 mph - 0.01 in   Overcast
1:52 PM 60.1 °F 48.9 °F 67% 30.00 in 10.0 mi West 9.2 mph - N/A   Overcast
2:18 PM 57.2 °F 51.8 °F 82% 30.05 in 10.0 mi NW 5.8 mph - 0.00 in   Overcast
2:52 PM 62.1 °F 52.0 °F 70% 29.99 in 10.0 mi WSW 5.8 mph - 0.00 in   Overcast
3:52 PM 59.0 °F 51.1 °F 75% 29.99 in 10.0 mi WNW 6.9 mph - 0.00 in Rain Light Rain
4:20 PM 57.2 °F 51.8 °F 82% 30.03 in 8.0 mi Calm Calm - 0.01 in Rain Light Rain
4:52 PM 60.1 °F 50.0 °F 69% 29.98 in 10.0 mi West 5.8 mph - 0.01 in   Overcast
5:52 PM 62.1 °F 50.0 °F 65% 29.96 in 10.0 mi NW 5.8 mph - N/A   Overcast
6:52 PM 62.1 °F 50.0 °F 65% 29.97 in 10.0 mi NNW 3.5 mph - N/A   Overcast
7:52 PM 60.1 °F 48.9 °F 67% 29.98 in 10.0 mi Calm Calm - N/A   Mostly Cloudy
8:52 PM 59.0 °F 48.9 °F 69% 29.99 in 10.0 mi Calm Calm - N/A   Mostly Cloudy
9:52 PM 57.0 °F 48.9 °F 74% 30.02 in 10.0 mi Calm Calm - N/A   Mostly Cloudy
10:52 PM 57.0 °F 48.9 °F 74% 30.01 in 10.0 mi Calm Calm - N/A   Clear
11:52 PM 57.0 °F 48.9 °F 74% 30.01 in 10.0 mi Calm Calm - N/A   Clear